Time,TemperatureF,DewpointF,PressureIn,WindDirection,WindDirectionDegrees,WindSpeedMPH,WindSpeedGustMPH,Humidity,HourlyPrecipIn,Conditions,Clouds,dailyrainin,SoftwareType,DateUTC
2013-05-22 00:03:00,73.0,63.0,-100.00,North,5,1.0,3.0,70,0.00,,,-99.99,,2013-05-22 04:03:00,
2013-05-22 00:13:00,72.0,64.0,-100.00,SW,220,0.0,2.0,75,0.00,,,-99.99,,2013-05-22 04:13:00,
2013-05-22 00:23:00,71.0,64.0,-100.00,NW,305,0.0,1.0,77,0.00,,,-99.99,,2013-05-22 04:23:00,
2013-05-22 00:33:00,72.0,63.0,-100.00,NNW,335,1.0,3.0,73,0.00,,,-99.99,,2013-05-22 04:33:00,
2013-05-22 00:43:00,74.0,64.0,-100.00,North,355,11.0,16.0,70,0.00,,,-99.99,,2013-05-22 04:43:00,
2013-05-22 00:53:00,73.0,64.0,-100.00,North,350,9.0,18.0,72,0.00,,,-99.99,,2013-05-22 04:53:00,
2013-05-22 01:02:00,72.0,63.0,-100.00,NNW,345,5.0,12.0,73,0.55,,,-99.99,,2013-05-22 05:02:00,
2013-05-22 01:12:00,69.0,65.0,-100.00,NNW,335,4.0,9.0,86,0.00,,,-99.99,,2013-05-22 05:12:00,
2013-05-22 01:21:00,70.0,66.0,-100.00,East,85,1.0,6.0,85,0.00,,,-99.99,,2013-05-22 05:21:00,
2013-05-22 01:32:00,70.0,65.0,-100.00,North,0,2.0,5.0,86,0.00,,,-99.99,,2013-05-22 05:32:00,
2013-05-22 01:42:00,69.0,65.0,-100.00,ESE,115,1.0,3.0,87,0.00,,,-99.99,,2013-05-22 05:42:00,
2013-05-22 01:51:00,69.0,66.0,-100.00,ESE,120,1.0,3.0,90,0.00,,,-99.99,,2013-05-22 05:51:00,
2013-05-22 02:01:00,68.0,66.0,-100.00,SW,220,1.0,2.0,91,0.00,,,-99.99,,2013-05-22 06:01:00,
2013-05-22 02:12:00,68.0,66.0,-100.00,SE,130,1.0,2.0,92,0.00,,,-99.99,,2013-05-22 06:12:00,
2013-05-22 02:21:00,67.0,66.0,-100.00,WNW,290,1.0,2.0,93,0.00,,,-99.99,,2013-05-22 06:21:00,
2013-05-22 02:32:00,67.0,65.0,-100.00,NNW,335,2.0,4.0,93,0.00,,,-99.99,,2013-05-22 06:32:00,
2013-05-22 02:42:00,68.0,65.0,-100.00,NE,45,2.0,5.0,91,0.00,,,-99.99,,2013-05-22 06:42:00,
2013-05-22 02:52:00,68.0,65.0,-100.00,NE,35,3.0,6.0,90,0.00,,,-99.99,,2013-05-22 06:52:00,
2013-05-22 03:01:00,68.0,65.0,-100.00,NE,35,1.0,6.0,89,0.00,,,-99.99,,2013-05-22 07:01:00,
2013-05-22 03:11:00,68.0,64.0,-100.00,NNE,15,3.0,6.0,88,0.00,,,-99.99,,2013-05-22 07:11:00,
2013-05-22 03:21:00,68.0,64.0,-100.00,NNE,30,1.0,5.0,88,0.00,,,-99.99,,2013-05-22 07:21:00,
2013-05-22 03:32:00,68.0,64.0,-100.00,NW,305,1.0,4.0,88,0.00,,,-99.99,,2013-05-22 07:32:00,
2013-05-22 03:42:00,68.0,64.0,-100.00,NNE,30,1.0,6.0,88,0.00,,,-99.99,,2013-05-22 07:42:00,
2013-05-22 03:52:00,67.0,64.0,-100.00,North,355,1.0,3.0,88,0.00,,,-99.99,,2013-05-22 07:52:00,
2013-05-22 04:02:00,67.0,64.0,-100.00,NNW,340,1.0,3.0,89,0.00,,,-99.99,,2013-05-22 08:02:00,
2013-05-22 04:11:00,67.0,64.0,-100.00,WNW,300,1.0,3.0,89,0.00,,,-99.99,,2013-05-22 08:11:00,
2013-05-22 04:22:00,66.0,63.0,-100.00,NW,305,1.0,3.0,90,0.00,,,-99.99,,2013-05-22 08:22:00,
2013-05-22 04:32:00,66.0,63.0,-100.00,NW,315,3.0,6.0,90,0.00,,,-99.99,,2013-05-22 08:32:00,
2013-05-22 04:42:00,66.0,63.0,-100.00,NNW,345,2.0,6.0,90,0.00,,,-99.99,,2013-05-22 08:42:00,
2013-05-22 04:52:00,66.0,63.0,-100.00,NNW,330,1.0,5.0,89,0.00,,,-99.99,,2013-05-22 08:52:00,
2013-05-22 05:01:00,66.0,63.0,-100.00,WNW,285,1.0,4.0,89,0.00,,,-99.99,,2013-05-22 09:01:00,
2013-05-22 05:12:00,66.0,63.0,-100.00,NNE,30,1.0,3.0,89,0.00,,,-99.99,,2013-05-22 09:12:00,
2013-05-22 05:22:00,65.0,62.0,-100.00,West,280,1.0,3.0,90,0.00,,,-99.99,,2013-05-22 09:22:00,
2013-05-22 05:33:00,65.0,62.0,-100.00,NNW,330,2.0,4.0,89,0.00,,,-99.99,,2013-05-22 09:33:00,
2013-05-22 05:42:00,65.0,62.0,-100.00,North,355,0.0,3.0,89,0.00,,,-99.99,,2013-05-22 09:42:00,
2013-05-22 05:53:00,65.0,62.0,-100.00,WSW,245,1.0,4.0,89,0.00,,,-99.99,,2013-05-22 09:53:00,
2013-05-22 06:03:00,64.0,61.0,-100.00,SW,225,2.0,3.0,91,0.00,,,-99.99,,2013-05-22 10:03:00,
2013-05-22 06:12:00,63.0,61.0,-100.00,SE,135,1.0,3.0,93,0.00,,,-99.99,,2013-05-22 10:12:00,
2013-05-22 06:23:00,63.0,61.0,-100.00,SE,125,0.0,3.0,93,0.00,,,-99.99,,2013-05-22 10:23:00,
2013-05-22 06:33:00,63.0,62.0,-100.00,SW,230,2.0,4.0,93,0.00,,,-99.99,,2013-05-22 10:33:00,
2013-05-22 06:42:00,64.0,62.0,-100.00,NW,310,1.0,4.0,93,0.00,,,-99.99,,2013-05-22 10:42:00,
2013-05-22 06:52:00,64.0,62.0,-100.00,WNW,295,1.0,5.0,91,0.00,,,-99.99,,2013-05-22 10:52:00,
2013-05-22 07:02:00,65.0,62.0,-100.00,NW,320,1.0,6.0,89,0.00,,,-99.99,,2013-05-22 11:02:00,
2013-05-22 07:11:00,65.0,62.0,-100.00,WNW,285,1.0,3.0,88,0.00,,,-99.99,,2013-05-22 11:11:00,
2013-05-22 07:22:00,66.0,62.0,-100.00,WSW,255,1.0,3.0,87,0.00,,,-99.99,,2013-05-22 11:22:00,
2013-05-22 07:32:00,66.0,62.0,-100.00,WSW,255,3.0,5.0,87,0.00,,,-99.99,,2013-05-22 11:32:00,
2013-05-22 07:42:00,66.0,62.0,-100.00,ENE,65,1.0,4.0,85,0.00,,,-99.99,,2013-05-22 11:42:00,
2013-05-22 07:52:00,67.0,62.0,-100.00,NW,325,2.0,5.0,84,0.00,,,-99.99,,2013-05-22 11:52:00,
2013-05-22 08:02:00,67.0,61.0,-100.00,WNW,300,4.0,7.0,82,0.00,,,-99.99,,2013-05-22 12:02:00,
2013-05-22 08:12:00,68.0,62.0,-100.00,North,355,2.0,7.0,81,0.00,,,-99.99,,2013-05-22 12:12:00,
2013-05-22 08:22:00,68.0,62.0,-100.00,NNW,330,3.0,7.0,79,0.00,,,-99.99,,2013-05-22 12:22:00,
2013-05-22 08:32:00,68.0,62.0,-100.00,NW,325,4.0,9.0,80,0.00,,,-99.99,,2013-05-22 12:32:00,
2013-05-22 08:42:00,69.0,62.0,-100.00,North,5,4.0,9.0,78,0.00,,,-99.99,,2013-05-22 12:42:00,
2013-05-22 08:52:00,69.0,62.0,-100.00,North,0,4.0,9.0,76,0.00,,,-99.99,,2013-05-22 12:52:00,
2013-05-22 09:02:00,69.0,62.0,-100.00,NNW,335,4.0,8.0,77,0.00,,,-99.99,,2013-05-22 13:02:00,
2013-05-22 09:12:00,70.0,62.0,-100.00,North,10,6.0,9.0,75,0.00,,,-99.99,,2013-05-22 13:12:00,
2013-05-22 09:22:00,71.0,62.0,-100.00,NNW,335,4.0,9.0,74,0.00,,,-99.99,,2013-05-22 13:22:00,
2013-05-22 09:32:00,72.0,63.0,-100.00,NW,325,4.0,7.0,72,0.00,,,-99.99,,2013-05-22 13:32:00,
2013-05-22 09:42:00,71.0,62.0,-100.00,North,350,4.0,7.0,71,0.00,,,-99.99,,2013-05-22 13:42:00,
2013-05-22 09:52:00,72.0,62.0,-100.00,NE,35,3.0,9.0,70,0.00,,,-99.99,,2013-05-22 13:52:00,
2013-05-22 10:02:00,73.0,63.0,-100.00,North,0,5.0,9.0,70,0.00,,,-99.99,,2013-05-22 14:02:00,
2013-05-22 10:11:00,73.0,62.0,-100.00,NW,320,4.0,9.0,68,0.00,,,-99.99,,2013-05-22 14:11:00,
2013-05-22 10:21:00,74.0,62.0,-100.00,North,0,6.0,9.0,66,0.00,,,-99.99,,2013-05-22 14:21:00,
2013-05-22 10:32:00,74.0,62.0,-100.00,North,10,6.0,10.0,66,0.00,,,-99.99,,2013-05-22 14:32:00,
2013-05-22 10:42:00,75.0,62.0,-100.00,NNW,335,4.0,11.0,64,0.00,,,-99.99,,2013-05-22 14:42:00,
2013-05-22 10:52:00,75.0,62.0,-100.00,NW,325,3.0,9.0,64,0.00,,,-99.99,,2013-05-22 14:52:00,
2013-05-22 11:01:00,75.0,62.0,-100.00,North,0,4.0,10.0,63,0.00,,,-99.99,,2013-05-22 15:01:00,
2013-05-22 11:11:00,76.0,63.0,-100.00,North,0,6.0,12.0,64,0.00,,,-99.99,,2013-05-22 15:11:00,
2013-05-22 11:22:00,76.0,62.0,-100.00,NNW,330,4.0,10.0,62,0.00,,,-99.99,,2013-05-22 15:22:00,
2013-05-22 11:32:00,76.0,62.0,-100.00,North,355,5.0,9.0,60,0.00,,,-99.99,,2013-05-22 15:32:00,
2013-05-22 11:42:00,77.0,62.0,-100.00,North,350,4.0,14.0,60,0.00,,,-99.99,,2013-05-22 15:42:00,
2013-05-22 11:53:00,78.0,62.0,-100.00,NNW,330,7.0,12.0,58,0.00,,,-99.99,,2013-05-22 15:53:00,
2013-05-22 12:03:00,78.0,63.0,-100.00,NW,315,6.0,16.0,59,0.00,,,-99.99,,2013-05-22 16:03:00,
2013-05-22 12:12:00,79.0,63.0,-100.00,North,5,4.0,11.0,58,0.00,,,-99.99,,2013-05-22 16:12:00,
2013-05-22 12:23:00,79.0,62.0,-100.00,North,0,7.0,14.0,57,0.00,,,-99.99,,2013-05-22 16:23:00,
2013-05-22 12:33:00,80.0,63.0,-100.00,NNW,330,6.0,9.0,57,0.00,,,-99.99,,2013-05-22 16:33:00,
2013-05-22 12:42:00,80.0,64.0,-100.00,NW,325,6.0,16.0,57,0.00,,,-99.99,,2013-05-22 16:42:00,
2013-05-22 12:52:00,81.0,62.0,-100.00,NNW,330,9.0,14.0,53,0.00,,,-99.99,,2013-05-22 16:52:00,
2013-05-22 13:02:00,82.0,62.0,-100.00,NNE,20,6.0,13.0,51,0.00,,,-99.99,,2013-05-22 17:02:00,
2013-05-22 13:12:00,82.0,62.0,-100.00,North,0,9.0,14.0,50,0.00,,,-99.99,,2013-05-22 17:12:00,
2013-05-22 13:23:00,82.0,62.0,-100.00,North,350,10.0,14.0,50,0.00,,,-99.99,,2013-05-22 17:23:00,
2013-05-22 13:33:00,83.0,62.0,-100.00,North,355,6.0,15.0,50,0.00,,,-99.99,,2013-05-22 17:33:00,
2013-05-22 13:42:00,82.0,62.0,-100.00,North,5,7.0,13.0,51,0.00,,,-99.99,,2013-05-22 17:42:00,
2013-05-22 13:53:00,83.0,63.0,-100.00,NNW,340,6.0,15.0,50,0.00,,,-99.99,,2013-05-22 17:53:00,
2013-05-22 14:02:00,82.0,61.0,-100.00,North,355,9.0,18.0,50,0.00,,,-99.99,,2013-05-22 18:02:00,
2013-05-22 14:14:00,81.0,61.0,-100.00,North,10,9.0,21.0,50,0.00,,,-99.99,,2013-05-22 18:14:00,
2013-05-22 14:22:00,83.0,61.0,-100.00,NNW,330,9.0,16.0,47,0.00,,,-99.99,,2013-05-22 18:22:00,
2013-05-22 14:34:00,83.0,61.0,-100.00,North,5,11.0,19.0,47,0.00,,,-99.99,,2013-05-22 18:34:00,
2013-05-22 14:42:00,83.0,60.0,-100.00,North,0,12.0,22.0,46,0.00,,,-99.99,,2013-05-22 18:42:00,
2013-05-22 14:52:00,83.0,61.0,-100.00,NNW,345,7.0,19.0,46,0.00,,,-99.99,,2013-05-22 18:52:00,
2013-05-22 15:02:00,83.0,61.0,-100.00,North,5,9.0,19.0,46,0.00,,,-99.99,,2013-05-22 19:02:00,
2013-05-22 15:11:00,84.0,60.0,-100.00,North,10,9.0,20.0,45,0.00,,,-99.99,,2013-05-22 19:11:00,
2013-05-22 15:21:00,84.0,60.0,-100.00,North,0,11.0,19.0,43,0.00,,,-99.99,,2013-05-22 19:21:00,
2013-05-22 15:32:00,84.0,60.0,-100.00,North,5,11.0,18.0,44,0.00,,,-99.99,,2013-05-22 19:32:00,
2013-05-22 15:42:00,85.0,59.0,-100.00,NNE,15,7.0,21.0,42,0.00,,,-99.99,,2013-05-22 19:42:00,
2013-05-22 15:52:00,85.0,57.0,-100.00,North,0,11.0,19.0,39,0.00,,,-99.99,,2013-05-22 19:52:00,
2013-05-22 16:02:00,85.0,58.0,-100.00,North,0,8.0,19.0,40,0.00,,,-99.99,,2013-05-22 20:02:00,
2013-05-22 16:11:00,85.0,57.0,-100.00,NNE,20,9.0,22.0,38,0.00,,,-99.99,,2013-05-22 20:11:00,
2013-05-22 16:22:00,84.0,58.0,-100.00,NE,45,9.0,19.0,41,0.00,,,-99.99,,2013-05-22 20:22:00,
2013-05-22 16:32:00,84.0,59.0,-100.00,North,5,9.0,20.0,43,0.00,,,-99.99,,2013-05-22 20:32:00,
2013-05-22 16:42:00,84.0,58.0,-100.00,NNE,15,11.0,22.0,40,0.00,,,-99.99,,2013-05-22 20:42:00,
2013-05-22 16:51:00,84.0,58.0,-100.00,NNE,15,7.0,19.0,41,0.00,,,-99.99,,2013-05-22 20:51:00,
2013-05-22 17:01:00,83.0,59.0,-100.00,NNE,15,7.0,17.0,44,0.00,,,-99.99,,2013-05-22 21:01:00,
2013-05-22 17:11:00,82.0,60.0,-100.00,NE,50,9.0,16.0,46,0.00,,,-99.99,,2013-05-22 21:11:00,
2013-05-22 17:21:00,82.0,59.0,-100.00,NNE,25,10.0,16.0,46,0.00,,,-99.99,,2013-05-22 21:21:00,
2013-05-22 17:32:00,82.0,59.0,-100.00,North,0,14.0,24.0,45,0.00,,,-99.99,,2013-05-22 21:32:00,
2013-05-22 17:42:00,82.0,58.0,-100.00,NE,45,7.0,22.0,45,0.00,,,-99.99,,2013-05-22 21:42:00,
2013-05-22 17:52:00,81.0,58.0,-100.00,North,5,8.0,16.0,45,0.00,,,-99.99,,2013-05-22 21:52:00,
2013-05-22 18:03:00,81.0,59.0,-100.00,North,0,8.0,16.0,47,0.00,,,-99.99,,2013-05-22 22:03:00,
2013-05-22 18:13:00,81.0,59.0,-100.00,NE,40,7.0,13.0,46,0.00,,,-99.99,,2013-05-22 22:13:00,
2013-05-22 18:22:00,81.0,60.0,-100.00,North,0,6.0,13.0,48,0.00,,,-99.99,,2013-05-22 22:22:00,
2013-05-22 18:33:00,81.0,60.0,-100.00,ENE,60,4.0,12.0,48,0.00,,,-99.99,,2013-05-22 22:33:00,
2013-05-22 18:42:00,81.0,58.0,-100.00,NNE,30,7.0,12.0,47,0.00,,,-99.99,,2013-05-22 22:42:00,
2013-05-22 18:52:00,80.0,58.0,-100.00,NNE,15,7.0,15.0,47,0.00,,,-99.99,,2013-05-22 22:52:00,
2013-05-22 19:02:00,80.0,59.0,-100.00,North,0,6.0,11.0,48,0.00,,,-99.99,,2013-05-22 23:02:00,
2013-05-22 19:12:00,81.0,58.0,-100.00,NNE,15,6.0,13.0,45,0.00,,,-99.99,,2013-05-22 23:12:00,
2013-05-22 19:21:00,81.0,57.0,-100.00,North,5,7.0,14.0,44,0.00,,,-99.99,,2013-05-22 23:21:00,
2013-05-22 19:32:00,80.0,57.0,-100.00,NE,50,4.0,11.0,45,0.00,,,-99.99,,2013-05-22 23:32:00,
2013-05-22 19:42:00,80.0,57.0,-100.00,NE,50,4.0,9.0,46,0.00,,,-99.99,,2013-05-22 23:42:00,
2013-05-22 19:52:00,80.0,58.0,-100.00,North,5,3.0,8.0,47,0.00,,,-99.99,,2013-05-22 23:52:00,
2013-05-22 20:01:00,80.0,57.0,-100.00,North,10,4.0,7.0,46,0.00,,,-99.99,,2013-05-23 00:01:00,
2013-05-22 20:11:00,79.0,57.0,-100.00,North,0,3.0,9.0,47,0.00,,,-99.99,,2013-05-23 00:11:00,
2013-05-22 20:22:00,79.0,57.0,-100.00,North,10,3.0,6.0,46,0.00,,,-99.99,,2013-05-23 00:22:00,
2013-05-22 20:32:00,79.0,56.0,-100.00,NNW,335,5.0,12.0,45,0.00,,,-99.99,,2013-05-23 00:32:00,
2013-05-22 20:42:00,78.0,56.0,-100.00,North,10,4.0,12.0,46,0.00,,,-99.99,,2013-05-23 00:42:00,
2013-05-22 20:51:00,78.0,56.0,-100.00,NNW,345,4.0,9.0,46,0.00,,,-99.99,,2013-05-23 00:51:00,
2013-05-22 21:01:00,78.0,56.0,-100.00,NNE,20,7.0,12.0,46,0.00,,,-99.99,,2013-05-23 01:01:00,
2013-05-22 21:11:00,78.0,56.0,-100.00,NNE,15,5.0,9.0,46,0.00,,,-99.99,,2013-05-23 01:11:00,
2013-05-22 21:22:00,77.0,56.0,-100.00,North,0,7.0,14.0,47,0.00,,,-99.99,,2013-05-23 01:22:00,
2013-05-22 21:32:00,77.0,56.0,-100.00,NNE,25,6.0,12.0,47,0.00,,,-99.99,,2013-05-23 01:32:00,
2013-05-22 21:42:00,77.0,56.0,-100.00,NE,40,3.0,7.0,48,0.00,,,-99.99,,2013-05-23 01:42:00,
2013-05-22 21:52:00,76.0,56.0,-100.00,NE,45,2.0,6.0,49,0.00,,,-99.99,,2013-05-23 01:52:00,
2013-05-22 22:02:00,76.0,56.0,-100.00,NNW,330,2.0,7.0,49,0.00,,,-99.99,,2013-05-23 02:02:00,
2013-05-22 22:11:00,76.0,57.0,-100.00,North,0,2.0,8.0,52,0.00,,,-99.99,,2013-05-23 02:11:00,
2013-05-22 22:21:00,75.0,57.0,-100.00,North,10,4.0,7.0,52,0.00,,,-99.99,,2013-05-23 02:21:00,
2013-05-22 22:32:00,75.0,57.0,-100.00,North,350,3.0,9.0,53,0.00,,,-99.99,,2013-05-23 02:32:00,
2013-05-22 22:42:00,75.0,57.0,-100.00,North,350,3.0,9.0,53,0.00,,,-99.99,,2013-05-23 02:42:00,
2013-05-22 22:51:00,75.0,57.0,-100.00,North,350,3.0,9.0,53,0.00,,,-99.99,,2013-05-23 02:51:00,
2013-05-22 23:02:00,72.0,60.0,-100.00,NE,55,9.0,16.0,66,0.00,,,-99.99,,2013-05-23 03:02:00,
2013-05-22 23:11:00,71.0,61.0,-100.00,ENE,65,2.0,9.0,69,0.00,,,-99.99,,2013-05-23 03:11:00,
2013-05-22 23:21:00,71.0,62.0,-100.00,ENE,60,1.0,3.0,71,0.00,,,-99.99,,2013-05-23 03:21:00,
2013-05-22 23:33:00,70.0,63.0,-100.00,SSE,150,1.0,2.0,77,1.10,,,-99.99,,2013-05-23 03:33:00,
2013-05-22 23:43:00,69.0,63.0,-100.00,WSW,250,2.0,3.0,82,0.00,,,-99.99,,2013-05-23 03:43:00,
2013-05-22 23:53:00,68.0,64.0,-100.00,SE,140,1.0,2.0,84,0.00,,,-99.99,,2013-05-23 03:53:00,